Falfurrias, TX

6:39 AM CST on November 20, 2019 (GMT -0600)
Falfurrias

Weather History for KBKS - October, 2019

Change the Weather History Date:

Tuesday, October 15, 2019

  Actual Average (WUND) Record (WUND)
Temperature  
Mean Temperature 86 °F -  
Max Temperature 98 °F - - (-1)
Min Temperature 75 °F - - (-1)
Cooling Degree Days 21    
Growing Degree Days 36 (Base 50)    
Moisture  
Dew Point 73 °F    
Average Humidity 70    
Maximum Humidity 93    
Minimum Humidity 36    
Precipitation  
Precipitation 0.00 in - - ()
Sea Level Pressure  
Sea Level Pressure 29.88 in    
Wind  
Wind Speed 6 mph ()    
Max Wind Speed 14 mph    
Max Gust Speed 20 mph    
Visibility 9.0 miles    
Events      
Averages and records for this station are not official NWS values.
T = Trace of Precipitation, MM = Missing Value Source: Averaged Metar Reports

Daily Weather History Graph

Daily Weather History Graph

Search for Another Location

Airport or City:

Astronomy

Oct. 15, 2019 Rise Set
Actual Time 7:32 AM CDT 7:03 PM CDT
Civil Twilight 7:08 AM CDT 7:27 PM CDT
Nautical Twilight 6:41 AM CDT 7:54 PM CDT
Astronomical Twilight 6:14 AM CDT 8:21 PM CDT
Moon 8:31 PM CDT (10/15) 8:59 AM CDT (10/15)
Length of Visible Light 12h 18m
Length of Day
11h 31m
Full, 97% of the Moon is Illuminated
Oct 15
Full
Oct 21
Last Quarter
Oct 27
New
Nov 4
First Quarter
Nov 12
Full

Hourly Weather History & Observations

Time (CDT) Temp. Heat Index Dew Point Humidity Pressure Visibility Wind Dir Wind Speed Gust Speed Precip Events Conditions
12:10 AM 79.7 °F - 75.7 °F 88% 29.94 in 10.0 mi SE 8.1 mph - N/A   Clear
12:35 AM 79.3 °F - 75.7 °F 89% 29.93 in 10.0 mi SE 5.8 mph - N/A   Clear
12:50 AM 79.2 °F - 75.7 °F 89% 29.93 in 10.0 mi SSE 5.8 mph - N/A   Clear
1:15 AM 79.0 °F - 75.7 °F 90% 29.93 in 10.0 mi SE 4.6 mph - N/A   Clear
1:35 AM 79.0 °F - 75.9 °F 90% 29.93 in 10.0 mi SE 5.8 mph - N/A   Clear
1:50 AM 79.0 °F - 75.9 °F 90% 29.93 in 10.0 mi SE 5.8 mph - N/A   Scattered Clouds
2:10 AM 78.8 °F - 75.7 °F 90% 29.92 in 10.0 mi SSE 6.9 mph - N/A   Scattered Clouds
2:35 AM 78.8 °F - 75.7 °F 90% 29.92 in 10.0 mi SSE 5.8 mph - N/A   Scattered Clouds
2:55 AM 78.8 °F - 75.7 °F 90% 29.92 in 10.0 mi SSE 5.8 mph - N/A   Scattered Clouds
3:15 AM 78.8 °F - 75.6 °F 90% 29.92 in 10.0 mi SSE 6.9 mph - N/A   Scattered Clouds
3:30 AM 78.4 °F - 75.4 °F 90% 29.91 in 10.0 mi SSE 6.9 mph - N/A   Clear
3:55 AM 78.1 °F - 75.2 °F 91% 29.91 in 10.0 mi SSE 4.6 mph - N/A   Clear
4:15 AM 77.9 °F - 75.0 °F 91% 29.90 in 10.0 mi SSE 5.8 mph - N/A   Clear
4:35 AM 77.2 °F - 74.5 °F 91% 29.90 in 7.0 mi Calm Calm - N/A   Clear
4:55 AM 77.2 °F - 74.5 °F 91% 29.90 in 7.0 mi SSE 4.6 mph - N/A   Clear
5:15 AM 77.2 °F - 74.7 °F 92% 29.90 in 7.0 mi South 3.5 mph - N/A   Scattered Clouds
5:35 AM 77.0 °F - 74.5 °F 92% 29.90 in 5.0 mi SSE 5.8 mph - N/A   Mostly Cloudy
5:55 AM 77.0 °F - 74.5 °F 92% 29.90 in 5.0 mi SSE 3.5 mph - N/A   Scattered Clouds
6:15 AM 76.8 °F - 74.3 °F 92% 29.91 in 5.0 mi Calm Calm - N/A   Mostly Cloudy
6:35 AM 76.3 °F - 73.8 °F 92% 29.91 in 4.0 mi Calm Calm - N/A   Overcast
6:55 AM 75.6 °F - 73.2 °F 92% 29.90 in 4.0 mi SSE 3.5 mph - N/A   Mostly Cloudy
7:15 AM 75.7 °F - 73.4 °F 92% 29.90 in 0.8 mi SSE 3.5 mph - N/A   Overcast
7:35 AM 76.1 °F - 73.9 °F 93% 29.91 in 1.2 mi Calm Calm - N/A   Overcast
7:55 AM 76.6 °F - 74.3 °F 92% 29.90 in 3.0 mi SSE 4.6 mph - N/A   Overcast
8:15 AM 77.0 °F - 74.7 °F 92% 29.90 in 3.0 mi SSE 3.5 mph - N/A   Overcast
8:35 AM 77.5 °F - 75.2 °F 92% 29.91 in 7.0 mi South 5.8 mph - N/A   Overcast
8:55 AM 78.1 °F - 75.6 °F 92% 29.91 in 10.0 mi SSE 8.1 mph - N/A   Mostly Cloudy
9:15 AM 79.7 °F - 76.3 °F 89% 29.91 in 10.0 mi South 6.9 mph - N/A   Scattered Clouds
9:35 AM 81.5 °F 88.5 °F 76.1 °F 84% 29.92 in 10.0 mi South 11.5 mph - N/A   Scattered Clouds
9:55 AM 83.1 °F 91.3 °F 76.1 °F 79% 29.92 in 10.0 mi SSE 11.5 mph - N/A   Mostly Cloudy
10:15 AM 85.1 °F 94.1 °F 75.6 °F 73% 29.92 in 10.0 mi SSE 12.7 mph - N/A   Scattered Clouds
10:35 AM 85.3 °F 93.7 °F 75.0 °F 71% 29.92 in 10.0 mi South 11.5 mph 17.3 mph N/A   Scattered Clouds
10:55 AM 88.0 °F 97.0 °F 74.5 °F 64% 29.92 in 10.0 mi SSE 11.5 mph 16.1 mph N/A   Scattered Clouds
11:15 AM 88.7 °F 97.7 °F 74.1 °F 62% 29.92 in 10.0 mi South 11.5 mph - N/A   Scattered Clouds
11:35 AM 90.0 °F 98.5 °F 73.2 °F 58% 29.91 in 10.0 mi SSE 10.4 mph - N/A   Scattered Clouds
11:55 AM 91.4 °F 100.7 °F 73.6 °F 56% 29.90 in 10.0 mi South 12.7 mph - N/A   Scattered Clouds
12:15 PM 92.3 °F 100.9 °F 72.9 °F 53% 29.89 in 10.0 mi SSE 10.4 mph - N/A   Scattered Clouds
12:35 PM 92.7 °F 100.5 °F 72.0 °F 51% 29.88 in 10.0 mi South 9.2 mph 16.1 mph N/A   Scattered Clouds
12:55 PM 93.6 °F 100.7 °F 71.2 °F 48% 29.88 in 10.0 mi SE 9.2 mph - N/A   Clear
1:15 PM 94.6 °F 101.1 °F 70.3 °F 45% 29.86 in 10.0 mi South 9.2 mph - N/A   Scattered Clouds
1:35 PM 95.2 °F 101.7 °F 70.3 °F 44% 29.86 in 10.0 mi SSW 8.1 mph - N/A   Scattered Clouds
1:55 PM 94.8 °F 101.5 °F 70.2 °F 45% 29.85 in 10.0 mi SSE 6.9 mph - N/A   Scattered Clouds
2:15 PM 96.3 °F 102.6 °F 70.0 °F 42% 29.84 in 10.0 mi SSE 10.4 mph - N/A   Scattered Clouds
2:35 PM 95.9 °F 101.9 °F 69.1 °F 42% 29.83 in 10.0 mi SSE 6.9 mph - N/A   Scattered Clouds
2:55 PM 96.6 °F 102.7 °F 69.1 °F 41% 29.82 in 10.0 mi SE 9.2 mph - N/A   Scattered Clouds
3:15 PM 97.2 °F 102.5 °F 68.7 °F 39% 29.82 in 10.0 mi SSE 3.5 mph 9.2 mph N/A   Scattered Clouds
3:35 PM 97.0 °F 102.8 °F 68.7 °F 40% 29.81 in 10.0 mi East 4.6 mph - N/A   Scattered Clouds
3:55 PM 95.5 °F 100.0 °F 67.6 °F 40% 29.81 in 10.0 mi SSE 6.9 mph - N/A   Scattered Clouds
4:15 PM 97.5 °F 102.6 °F 68.4 °F 38% 29.80 in 10.0 mi ESE 5.8 mph - N/A   Clear
4:35 PM 96.8 °F 101.2 °F 67.3 °F 38% 29.80 in 10.0 mi SSE 6.9 mph - N/A   Scattered Clouds
4:55 PM 97.2 °F 101.9 °F 67.5 °F 38% 29.80 in 10.0 mi SE 9.2 mph - N/A   Scattered Clouds
5:15 PM 97.5 °F 101.4 °F 66.7 °F 36% 29.80 in 10.0 mi ESE 10.4 mph - N/A   Clear
5:35 PM 95.4 °F 102.0 °F 70.3 °F 44% 29.80 in 10.0 mi ESE 10.4 mph 16.1 mph N/A   Clear
5:55 PM 93.2 °F 101.1 °F 72.0 °F 50% 29.80 in 10.0 mi ESE 12.7 mph 19.6 mph N/A   Clear
6:15 PM 91.6 °F 98.8 °F 72.0 °F 52% 29.80 in 10.0 mi ESE 12.7 mph 18.4 mph N/A   Clear
6:35 PM 90.0 °F 96.9 °F 71.6 °F 55% 29.80 in 10.0 mi ESE 13.8 mph 18.4 mph N/A   Clear
6:55 PM 88.5 °F 94.4 °F 71.1 °F 56% 29.81 in 10.0 mi ESE 11.5 mph 18.4 mph N/A   Clear
7:15 PM 87.3 °F 93.2 °F 71.2 °F 59% 29.81 in 10.0 mi ESE 10.4 mph 16.1 mph N/A   Clear
7:35 PM 86.2 °F 91.8 °F 71.2 °F 61% 29.82 in 10.0 mi ESE 4.6 mph 10.4 mph N/A   Clear
7:55 PM 85.1 °F 90.4 °F 71.2 °F 63% 29.83 in 10.0 mi ESE 8.1 mph - N/A   Clear
8:15 PM 84.6 °F 89.4 °F 70.9 °F 63% 29.83 in 10.0 mi ESE 8.1 mph - N/A   Clear
8:35 PM 83.7 °F 88.0 °F 70.3 °F 64% 29.84 in 10.0 mi ESE 6.9 mph - N/A   Clear
8:55 PM 82.9 °F 87.2 °F 70.3 °F 66% 29.85 in 10.0 mi SE 8.1 mph - N/A   Clear
9:15 PM 82.4 °F 86.7 °F 70.7 °F 68% 29.85 in 10.0 mi SE 8.1 mph - N/A   Clear
9:35 PM 82.4 °F 87.2 °F 71.6 °F 70% 29.86 in 10.0 mi SE 6.9 mph - N/A   Clear
9:55 PM 82.0 °F 86.7 °F 72.0 °F 71% 29.87 in 10.0 mi SE 8.1 mph - N/A   Clear
10:15 PM 81.5 °F 86.3 °F 72.5 °F 74% 29.88 in 10.0 mi SE 6.9 mph - N/A   Clear
10:35 PM 81.0 °F 85.4 °F 72.5 °F 75% 29.89 in 10.0 mi ESE 4.6 mph - N/A   Clear
11:15 PM 79.9 °F - 73.0 °F 80% 29.90 in 10.0 mi SE 3.5 mph - N/A   Clear
11:35 PM 79.7 °F - 73.4 °F 81% 29.91 in 10.0 mi SE 4.6 mph - N/A   Clear
11:55 PM 79.2 °F - 73.4 °F 82% 29.91 in 10.0 mi SE 3.5 mph - N/A   Clear